�������r�C�����j�^�v���󋵏��
Date,Time,5�C6���@���p�r�C��,����,����(m/s)
2021/12/18,00:00,4.0,�k��,14.6
2021/12/18,00:10,4.0,�k��,9.9
2021/12/18,00:20,4.1,�k��,11.8
2021/12/18,00:30,4.0,�k��,11.4
2021/12/18,00:40,3.9,�k�k��,9.7
2021/12/18,00:50,4.0,�k��,11.8
2021/12/18,01:00,4.0,�k�k��,12.7
2021/12/18,01:10,3.7,�k�k��,12.0
2021/12/18,01:20,4.0,�k�k��,10.6
2021/12/18,01:30,4.0,�k�k��,9.8
2021/12/18,01:40,4.1,�k�k��,9.9
2021/12/18,01:50,3.9,�k�k��,9.5
2021/12/18,02:00,4.1,�k�k��,10.3
2021/12/18,02:10,4.0,�k�k��,8.7
2021/12/18,02:20,4.0,�k��,7.8
2021/12/18,02:30,3.9,���k��,10.5
2021/12/18,02:40,4.0,���k��,10.2
2021/12/18,02:50,4.0,���k��,9.9
2021/12/18,03:00,4.0,��,12.2
2021/12/18,03:10,4.1,��,14.1
2021/12/18,03:20,3.9,��,11.6
2021/12/18,03:30,4.0,��,12.7
2021/12/18,03:40,3.8,��,11.4
2021/12/18,03:50,4.1,��,9.5
2021/12/18,04:00,4.0,��,10.9
2021/12/18,04:10,4.0,��,7.8
2021/12/18,04:20,4.0,��,8.6
2021/12/18,04:30,3.9,��,8.2
2021/12/18,04:40,3.9,�k��,5.0
2021/12/18,04:50,4.0,���k��,4.7
2021/12/18,05:00,4.0,���k��,3.3
2021/12/18,05:10,4.1,�k��,3.4
2021/12/18,05:20,3.9,���k��,2.3
2021/12/18,05:30,4.0,���k��,6.2
2021/12/18,05:40,4.1,��,8.3
2021/12/18,05:50,4.1,���k��,7.2
2021/12/18,06:00,4.1,���k��,7.6
2021/12/18,06:10,3.9,���k��,5.4
2021/12/18,06:20,4.1,���k��,7.3
2021/12/18,06:30,3.9,�k��,7.4
2021/12/18,06:40,4.0,�k�k��,5.3
2021/12/18,06:50,3.9,�k��,5.5
2021/12/18,07:00,4.1,�k�k��,3.1
2021/12/18,07:10,3.9,�k,2.6
2021/12/18,07:20,4.0,�k�k��,2.0
2021/12/18,07:30,3.8,�k,1.2
2021/12/18,07:40,4.1,�k��,2.6
2021/12/18,07:50,4.0,�k�k��,3.8
2021/12/18,08:00,4.0,�k�k��,2.5
2021/12/18,08:10,3.9,�k�k��,3.1
2021/12/18,08:20,4.1,�k,2.3
2021/12/18,08:30,4.0,�k,2.8
2021/12/18,08:40,4.1,�k�k��,2.6
2021/12/18,08:50,3.9,�k,3.5
2021/12/18,09:00,4.0,�k,3.3
2021/12/18,09:10,3.9,�k�k��,2.2
2021/12/18,09:20,4.0,�k�k��,5.6
2021/12/18,09:30,3.8,�k��,6.1
2021/12/18,09:40,4.0,�k��,5.7
2021/12/18,09:50,3.9,�k��,7.1
2021/12/18,10:00,4.1,�k�k��,5.6
2021/12/18,10:10,4.1,�k��,4.7
2021/12/18,10:20,3.9,�k��,5.2
2021/12/18,10:30,3.9,�k��,7.3
2021/12/18,10:40,4.0,�k��,6.4
2021/12/18,10:50,4.0,�k��,8.0
2021/12/18,11:00,4.0,���k��,8.3
2021/12/18,11:10,4.0,���k��,9.1
2021/12/18,11:20,4.0,��,7.9
2021/12/18,11:30,4.0,���k��,5.3
2021/12/18,11:40,4.1,��,5.1
2021/12/18,11:50,4.1,��,6.4
2021/12/18,12:00,4.3,��,11.9
2021/12/18,12:10,4.0,��,10.6
2021/12/18,12:20,4.0,���k��,8.6
2021/12/18,12:30,4.0,��,7.7
2021/12/18,12:40,3.9,��,9.2
2021/12/18,12:50,3.9,���k��,8.5
2021/12/18,13:00,4.1,���k��,7.9
2021/12/18,13:10,4.0,���k��,6.8
2021/12/18,13:20,4.0,���k��,7.1
2021/12/18,13:30,4.0,���k��,9.9
2021/12/18,13:40,4.2,���k��,6.8
2021/12/18,13:50,3.9,���k��,7.1
2021/12/18,14:00,4.0,�k��,9.6
2021/12/18,14:10,4.1,���k��,8.6
2021/12/18,14:20,4.0,���k��,8.3
2021/12/18,14:30,3.9,���k��,6.8
2021/12/18,14:40,4.1,���k��,10.2
2021/12/18,14:50,4.2,���k��,7.9
2021/12/18,15:00,4.1,���k��,7.5
2021/12/18,15:10,4.1,���k��,8.9
2021/12/18,15:20,3.9,��,5.9
2021/12/18,15:30,4.0,��,7.0
2021/12/18,15:40,4.1,��,7.1
2021/12/18,15:50,3.8,��,7.4
2021/12/18,16:00,4.0,��,7.5
2021/12/18,16:10,4.0,���k��,7.0
2021/12/18,16:20,3.9,��,4.4
2021/12/18,16:30,4.1,���k��,3.7
2021/12/18,16:40,4.0,��,2.6
2021/12/18,16:50,4.0,���k��,3.1
2021/12/18,17:00,4.1,�쐼,2.0
2021/12/18,17:10,4.1,���쐼,1.5
2021/12/18,17:20,4.1,�k�k��,2.6
2021/12/18,17:30,4.0,�k�k��,3.4
2021/12/18,17:40,4.3,�k��,2.3
2021/12/18,17:50,3.8,�k��,2.3
2021/12/18,18:00,4.0,���k��,2.3
2021/12/18,18:10,4.0,�쐼,1.1
2021/12/18,18:20,4.1,��,1.5
2021/12/18,18:30,3.9,���쓌,0.8
2021/12/18,18:40,4.0,�k��,1.4
2021/12/18,18:50,4.0,���k��,1.2
2021/12/18,19:00,3.9,��,2.2
2021/12/18,19:10,3.9,��,1.5
2021/12/18,19:20,4.1,���k��,0.9
2021/12/18,19:30,3.8,��,1.9
2021/12/18,19:40,4.0,�쐼,2.6
2021/12/18,19:50,4.1,��,1.7
2021/12/18,20:00,3.9,�쐼,2.6
2021/12/18,20:10,3.9,�쐼,3.0
2021/12/18,20:20,4.0,���쐼,1.7
2021/12/18,20:30,4.0,�쐼,3.0
2021/12/18,20:40,4.1,�쐼,3.6
2021/12/18,20:50,4.0,��,4.2
2021/12/18,21:00,4.1,��,3.6
2021/12/18,21:10,4.0,���쐼,3.4
2021/12/18,21:20,4.0,�쐼,3.7
2021/12/18,21:30,3.8,���쐼,2.3
2021/12/18,21:40,4.1,�쐼,2.3
2021/12/18,21:50,3.9,�쐼,2.2
2021/12/18,22:00,4.0,���쐼,3.1
2021/12/18,22:10,4.1,���쐼,3.2
2021/12/18,22:20,3.9,�쐼,3.6
2021/12/18,22:30,4.2,���쐼,3.2
2021/12/18,22:40,4.1,���쐼,3.3
2021/12/18,22:50,3.9,�쐼,3.9
2021/12/18,23:00,4.1,�쐼,4.0
2021/12/18,23:10,4.0,��쐼,4.2
2021/12/18,23:20,4.1,��쐼,3.6
2021/12/18,23:30,4.2,��쐼,3.8
2021/12/18,23:40,4.0,�쐼,4.0
2021/12/18,23:50,4.1,�쐼,4.6
